TimeEEST,TemperatureF,Dew PointF,Humidity,Sea Level PressureIn,VisibilityMPH,Wind Direction,Wind SpeedMPH,Gust SpeedMPH,PrecipitationIn,Events,Conditions,WindDirDegrees,DateUTC
12:20 AM,55.4,50.0,82,30.39,-9999.0,ENE,3.5,-,N/A,,Clear,70,2013-10-20 21:20:00
12:50 AM,55.4,50.0,82,30.36,-9999.0,Variable,3.5,-,N/A,,Clear,0,2013-10-20 21:50:00
1:20 AM,55.4,50.0,82,30.36,-9999.0,Variable,4.6,-,N/A,,Clear,0,2013-10-20 22:20:00
1:50 AM,53.6,50.0,88,30.36,-9999.0,Variable,2.3,-,N/A,,Clear,0,2013-10-20 22:50:00
2:50 AM,48.2,46.4,93,30.33,-9999.0,North,4.6,-,N/A,,Clear,350,2013-10-20 23:50:00
3:20 AM,48.2,46.4,93,30.33,-9999.0,NNW,4.6,-,N/A,,Clear,340,2013-10-21 00:20:00
3:50 AM,46.4,44.6,93,30.33,-9999.0,North,5.8,-,N/A,,Clear,360,2013-10-21 00:50:00
4:20 AM,46.4,44.6,93,30.33,-9999.0,NNW,6.9,-,N/A,,Clear,340,2013-10-21 01:20:00
4:50 AM,48.2,44.6,87,30.30,-9999.0,Variable,2.3,-,N/A,,Clear,0,2013-10-21 01:50:00
5:20 AM,46.4,44.6,93,30.30,4.3,Variable,2.3,-,N/A,,Unknown,0,2013-10-21 02:20:00
5:50 AM,46.4,44.6,93,30.30,4.3,NNW,4.6,-,N/A,,Unknown,340,2013-10-21 02:50:00
6:20 AM,46.4,44.6,93,30.30,5.0,Variable,2.3,-,N/A,,Unknown,0,2013-10-21 03:20:00
6:50 AM,48.2,44.6,87,30.30,4.3,Variable,2.3,-,N/A,,Unknown,0,2013-10-21 03:50:00
7:20 AM,48.2,44.6,87,30.30,4.3,North,3.5,-,N/A,,Unknown,350,2013-10-21 04:20:00
7:50 AM,48.2,44.6,87,30.30,3.7,NNW,8.1,-,N/A,,Unknown,340,2013-10-21 04:50:00
8:20 AM,51.8,41.0,67,30.30,-9999.0,North,5.8,-,N/A,,Clear,350,2013-10-21 05:20:00
8:50 AM,55.4,42.8,63,30.30,-9999.0,North,4.6,-,N/A,,Clear,360,2013-10-21 05:50:00
9:00 AM,54,42,54,30.32,6,North,4.6,,,,,0,2013-10-21 06:00:00
9:20 AM,60.8,46.4,59,30.30,-9999.0,Variable,5.8,-,N/A,,Clear,0,2013-10-21 06:20:00
9:50 AM,60.8,48.2,63,30.30,-9999.0,East,6.9,-,N/A,,Clear,100,2013-10-21 06:50:00
10:20 AM,60.8,48.2,63,30.30,-9999.0,East,5.8,-,N/A,,Clear,100,2013-10-21 07:20:00
10:50 AM,62.6,46.4,55,30.30,-9999.0,ESE,3.5,-,N/A,,Clear,120,2013-10-21 07:50:00
11:20 AM,64.4,46.4,52,30.30,-9999.0,ESE,4.6,-,N/A,,Clear,110,2013-10-21 08:20:00
11:50 AM,64.4,44.6,49,30.30,-9999.0,Variable,3.5,-,N/A,,Clear,0,2013-10-21 08:50:00
12:20 PM,64.4,48.2,56,30.30,-9999.0,SSW,6.9,-,N/A,,Clear,200,2013-10-21 09:20:00
12:50 PM,62.6,46.4,55,30.27,-9999.0,SW,6.9,-,N/A,,Clear,230,2013-10-21 09:50:00
1:20 PM,62.6,48.2,59,30.27,-9999.0,WSW,8.1,-,N/A,,Clear,240,2013-10-21 10:20:00
1:50 PM,62.6,42.8,48,30.27,-9999.0,WSW,9.2,-,N/A,,Clear,240,2013-10-21 10:50:00
2:20 PM,62.6,44.6,52,30.24,-9999.0,WSW,10.4,-,N/A,,Clear,250,2013-10-21 11:20:00
2:50 PM,62.6,42.8,48,30.24,-9999.0,WSW,11.5,-,N/A,,Clear,240,2013-10-21 11:50:00
3:00 PM,63,44,39,30.25,6,WSW,11.5,,,,,240,2013-10-21 12:00:00
3:20 PM,62.6,42.8,48,30.24,-9999.0,WSW,11.5,-,N/A,,Clear,240,2013-10-21 12:20:00
3:50 PM,62.6,42.8,48,30.21,-9999.0,WSW,11.5,-,N/A,,Clear,250,2013-10-21 12:50:00
4:20 PM,62.6,44.6,52,30.21,-9999.0,WSW,10.4,-,N/A,,Clear,240,2013-10-21 13:20:00
4:50 PM,62.6,46.4,55,30.21,-9999.0,WSW,9.2,-,N/A,,Clear,250,2013-10-21 13:50:00
5:20 PM,62.6,46.4,55,30.21,-9999.0,WSW,9.2,-,N/A,,Clear,250,2013-10-21 14:20:00
5:50 PM,62.6,46.4,55,30.21,-9999.0,WSW,6.9,-,N/A,,Clear,250,2013-10-21 14:50:00
6:20 PM,60.8,44.6,55,30.21,-9999.0,WSW,6.9,-,N/A,,Clear,250,2013-10-21 15:20:00
6:50 PM,60.8,46.4,59,30.21,-9999.0,West,5.8,-,N/A,,Clear,260,2013-10-21 15:50:00
7:20 PM,57.2,48.2,72,30.21,-9999.0,NW,4.6,-,N/A,,Clear,320,2013-10-21 16:20:00
7:50 PM,57.2,48.2,72,30.21,-9999.0,NNW,4.6,-,N/A,,Clear,330,2013-10-21 16:50:00
8:20 PM,57.2,48.2,72,30.21,-9999.0,NNW,4.6,-,N/A,,Clear,330,2013-10-21 17:20:00
8:50 PM,57.2,48.2,72,30.21,-9999.0,NNW,4.6,-,N/A,,Clear,340,2013-10-21 17:50:00
9:00 PM,57,49,66,30.24,6,NNW,4.6,,,,,340,2013-10-21 18:00:00
9:20 PM,59.0,50.0,72,30.21,-9999.0,Variable,2.3,-,N/A,,Clear,0,2013-10-21 18:20:00
9:50 PM,59.0,50.0,72,30.21,-9999.0,Variable,2.3,-,N/A,,Clear,0,2013-10-21 18:50:00
10:20 PM,57.2,50.0,77,30.21,-9999.0,Variable,2.3,-,N/A,,Clear,0,2013-10-21 19:20:00
10:50 PM,59.0,48.2,67,30.21,-9999.0,SW,3.5,-,N/A,,Clear,220,2013-10-21 19:50:00
11:20 PM,57.2,50.0,77,30.21,-9999.0,WSW,2.3,-,N/A,,Clear,240,2013-10-21 20:20:00
11:50 PM,57.2,51.8,82,30.21,-9999.0,SW,3.5,-,N/A,,Clear,230,2013-10-21 20:50:00